Regional Weather Roundup
Issued by NWS Upton, NY

Current Version | Previous Version | Text Only | Print | Product List | Glossary On
Versions: 1 2 3 4 5 6 7 8 9 10 11 12 13 14 15 16 17 18 19 20 21 22 23 24 25 26 27 28 29 30 31 32 33 34 35 36 37 38 39 40 41 42 43 44 45 46 47 48 49 50
000
ASUS41 KOKX 271105
RWROKX

REGIONAL WEATHER ROUNDUP
NATIONAL WEATHER SERVICE NEW YORK NY
600 AM EST SAT DEC 27 2014

NOTE: "FAIR" INDICATES FEW OR NO CLOUDS BELOW 12,000 FEET WITH NO
SIGNIFICANT WEATHER AND/OR OBSTRUCTIONS TO VISIBILITY.

NYZ071-072-176-178-NJZ106-104-271200-
NEW YORK CITY METRO AREA


CITY           SKY/WX    TMP DP  RH WIND       PRES   REMARKS
CENTRAL PARK   PTCLDY    45  29  53 W8        30.24R
LAGUARDIA APRT MOCLDY    45  31  58 W5        30.22R
KENNEDY INTL   MOCLDY    39  33  79 SW7       30.23R WCI  34
NEWARK/LIBERTY MOCLDY    36  31  82 SW5       30.24R WCI  32
BRNX BOT. GARD   N/A     43  32  65 W6        30.22S
TETERBORO      PTCLDY    33  28  81 CALM      30.22R
$$

NYZ177-179-078>081-271200-
LONG ISLAND NEW YORK

CITY           SKY/WX    TMP DP  RH WIND       PRES   REMARKS
FARMINGDALE    PTCLDY    35  30  82 W3        30.22R
ISLIP          MOCLDY    33  28  81 CALM      30.20R
SHIRLEY        MOCLDY    31  28  89 CALM      30.23R
WESTHAMPTON    PTCLDY    23  20  88 CALM      30.23R
MONTAUK POINT    N/A     42  34  73 NW5       30.20S
$$

NYZ052-065-067-271200-
HUDSON VALLEY

CITY           SKY/WX    TMP DP  RH WIND       PRES   REMARKS
WHITE PLAINS   PTCLDY    36  29  75 W5        30.20R WCI  32
NEWBURGH       MOCLDY    36  30  80 W12       30.21R WCI  27
MONTGOMERY     PTCLDY    32  28  85 SW6       30.20R WCI  26
POUGHKEEPSIE   PTCLDY    30  26  85 CALM      30.21R
ALBANY         CLOUDY    30  27  88 S3        30.20R
$$

NJZ001-105-106-008-010-013-015-019>022-104-271200-
NEW JERSEY

CITY           SKY/WX    TMP DP  RH WIND       PRES   REMARKS
NEWARK/LIBERTY MOCLDY    36  31  82 SW5       30.24R WCI  32
TETERBORO      PTCLDY    33  28  81 CALM      30.22R
CALDWELL       PTCLDY    31  29  92 CALM      30.23R
MORRISTOWN     PTCLDY    32  28  86 CALM      30.23R
SOMERVILLE     PTCLDY    28  25  88 CALM      30.23R
SUSSEX         PTCLDY    28  26  92 CALM      30.23R
ANDOVER        NOT AVBL
TRENTON        MOCLDY    38  29  70 NW3       30.23R
MILLVILLE      PTCLDY    27  24  89 CALM      30.27R
ATLANTIC CITY  PTCLDY    30  28  92 CALM      30.26R
WRIGHTSTOWN    NOT AVBL
TOMS RIVER     MOCLDY    30  28  93 W3        30.25R
BELMAR         CLOUDY    36  27  69 W6        30.24R WCI  31
$$

PAZ047>061-062-071-271200-
EASTERN PENNSYLVANIA

CITY           SKY/WX    TMP DP  RH WIND       PRES   REMARKS
PHILADELPHIA   MOCLDY    34  31  88 CALM      30.26R
ALLENTOWN      PTCLDY    29  26  89 CALM      30.23S
SCRANTON       MOCLDY    34  28  79 CALM      30.22R
$$

CTZ002-004>006-009-010-012-RIZ004-006-007-MAZ004-011-015-271200-
SOUTHERN NEW ENGLAND
 IN CT

CITY           SKY/WX    TMP DP  RH WIND       PRES   REMARKS
BRADLEY INTL   MOCLDY    27  25  92 CALM      30.18S
HARTFORD       FOG       29  27  92 CALM      30.20R VSB 1
DANBURY        PTCLDY    30  25  81 CALM      30.21R
WTRBRY/OXFORD  CLEAR     34  21  60 N5        30.19R WCI  30
BRIDGEPORT     PTCLDY    37  31  78 W3        30.21R
MERIDEN        CLEAR     28  25  88 CALM      30.20R FOG
NEW HAVEN      PTCLDY    31  26  82 CALM      30.20R
CHESTER        FAIR      36  30  80 CALM      30.19R
GROTON         PTCLDY    27  26  96 CALM      30.19S FOG
WILLIMANTIC    PTCLDY    25  22  88 CALM      30.20R

 IN RI

CITY           SKY/WX    TMP DP  RH WIND       PRES   REMARKS
PROVIDENCE     PTCLDY    36  27  69 CALM      30.18R
BLOCK ISLAND   CLEAR     39  30  70 W6        30.19R WCI  35
WESTERLY       PTCLDY    28  27  96 CALM      30.20R

 IN MA

CITY           SKY/WX    TMP DP  RH WIND       PRES   REMARKS
BOSTON         PTCLDY    41  29  62 W8        30.16R
WORCESTER      MOCLDY    33  27  78 W9        30.14S WCI  25
WESTFIELD      PTCLDY    27  24  89 SE3       30.18R
PROVINCETOWN   CLEAR     43  32  65 W10       30.17R
NANTUCKET      CLEAR     39  32  76 W6        30.17R WCI  35
$$

ANZ330-335-338-340-345-350-353-355-271200-
COASTAL MARINE OBSERVATIONS


STATION/POSITION TIME  SKY/WX   TEMP    WIND        PRES    VSBY  WAVE
                                AIR SEA DIR/SP/G                  HT/PER
                 (UTC)          (F)     (DEG/KT/KT) (MB)    (MI)  (FT/S)
NY HARB ENTRANCE 1100            44 45  290/  6/  8 1024.1          2/15
4S FIRE IS       1100               47                N/A           3/15
20S FIRE ISLAND  1000            46 49              1023.4          3/16
23SW MTP         1100                                 N/A           3/14
HUDSON CANYON    1100            49 54  290/ 12/ 16 1023.8          4/16
EXECUTION ROCKS  1100            42 42  220/  6/  8   N/A
WESTERN LI SOUND 1100            42     250/  4/  6   N/A           0
CENTRAL LI SOUND 1000            43 44  270/  8/ 10   N/A           1/ 3
EASTERN LI SOUND NOT AVBL
ROBBINS REEF     1100            41                 1022.3
$$


>>>>>>>>>>>>>>>>>>>>>>>>>>>> KEY <<<<<<<<<<<<<<<<<<<<<<<<<<<
>                                                          <
>     SKY/WX - SKY CONDITION/PRESENT WEATHER               <
>     TMP    - TEMPERATURE IN FAHRENHEIT                   <
>     DP     - DEWPOINT IN FAHRENHEIT                      <
>     RH     - RELATIVE HUMIDITY IN PERCENT                <
>     WIND   - DIRECTION AND SPEED IN MPH                  <
>     PRES   - MEAN SEA LEVEL PRESSURE IN INCHES OF HG     <
>     WCI    - WIND CHILL INDEX                            <
>     VSB    - VISIBILITY IN MILES                         <
>     HX     - HEAT INDEX                                  <
>     TC     - TEMPERATURE IN CELSIUS                      <
>     VRB    - VARIABLE WIND DIRECTION                     <
>                                                          <
>>>>>>>>>>>>>>>>>>>>>>>>>>>> KEY <<<<<<<<<<<<<<<<<<<<<<<<<<<




USA.gov is the U.S. government's official web portal to all federal, state and local government web resources and services.